This is the latest recevied weather packets stored in our database for station/object WX7FGZ-6. If no packets are shown the sender has not sent any weather packets the latest 10 day(s).
| Time | Temp. | Humidity | Pressure | Rain* | Wind** | Luminosity | Snow |
|---|---|---|---|---|---|---|---|
| 1778087569 | -0.56° C | 72% | 1018.6 hPa | 0 mm | - | - | - |
| 1778087269 | 0° C | 73% | 1018.5 hPa | 0 mm | - | - | - |
| 1778086970 | -0.56° C | 73% | 1018.8 hPa | 0 mm | - | - | - |
| 1778086670 | -0.56° C | 74% | 1018.8 hPa | 0 mm | - | - | - |
| 1778086370 | -1.11° C | 74% | 1018.8 hPa | 0 mm | - | - | - |
| 1778086069 | -1.11° C | 73% | 1018.6 hPa | 0 mm | - | - | - |
| 1778085769 | -1.11° C | 73% | 1018.6 hPa | 0 mm | - | - | - |
| 1778085469 | -1.11° C | 74% | 1018.5 hPa | 0 mm | - | - | - |
| 1778085169 | -1.11° C | 74% | 1018.4 hPa | 0 mm | - | - | - |
| 1778084270 | -1.67° C | 73% | 1018.3 hPa | 0 mm | - | - | - |
| 1778083970 | -1.67° C | 73% | 1018.4 hPa | 0 mm | - | - | - |
| 1778083670 | -1.67° C | 73% | 1018.5 hPa | 0 mm | - | - | - |
| 1778083180 | -1.67° C | 73% | 1018.7 hPa | 0 mm | - | - | - |
| 1778082882 | -2.22° C | 74% | 1018.9 hPa | 0 mm | - | - | - |
| 1778082581 | -2.22° C | 73% | 1018.7 hPa | 0 mm | - | - | - |
| 1778082282 | -2.22° C | 74% | 1018.7 hPa | 0 mm | - | - | - |
| 1778081982 | -2.22° C | 75% | 1018.6 hPa | 0 mm | - | - | - |
| 1778081681 | -2.22° C | 74% | 1018.5 hPa | 0 mm | - | - | - |
| 1778081382 | -2.22° C | 75% | 1018.5 hPa | 0 mm | - | - | - |
| 1778081082 | -2.22° C | 74% | 1018.6 hPa | 0 mm | - | - | - |
| 1778080735 | -2.22° C | 74% | 1018.6 hPa | 0 mm | - | - | - |
| 1778080604 | -2.22° C | 74% | 1018.5 hPa | 0 mm | - | - | - |
| 1778080435 | -2.22° C | 74% | 1018.5 hPa | 0 mm | - | - | - |
| 1778080332 | -2.22° C | 75% | 1018.3 hPa | 0 mm | - | - | - |
| 1778080136 | -2.22° C | 75% | 1018.3 hPa | 0 mm | - | - | - |
* Rain latest hour (hover to see other rain measurements)
** Current wind speed in m/s (hover to see current wind gust speed)